CDVK1: Caney River Near Cedar Vale, KS

Data processed at Tue May 21 2019 23:50


All information presented herein is the property of the government of the United States of America and may be revised or deleted at any time without prior notice.
Dissemination of this information without the expressed written consent of the Public Affairs Office, Tulsa District U.S. Army Corps of Engineers is strictly prohibited.
These data are gathered electronically and, as presented, have not undergone any form of quality control. These data are not guaranteed to be valid or correct.
Go to home page.
Go to station list.
Go to home page.

Upstream stations:

Downstream station:
Previous Day
Next Day
Current Day
    
SHEF ID:       CDVK1     CANEY R NR CEDAR VALE, KS
STATION TYPE:  
Regulating: Stage =    20.00, Flow =     8318

               PRECIP     STAGE  RIV-FLOW   VOLTAGE  BAT-LOAD
                   in        ft       cfs      volt      volt
              Ccp-Rev   Ccp-Rev   Ccp-Rev   Ccp-Rev   Ccp-Rev
(US/Central)
05/21 00:00      0.03     25.32      ----     12.57     12.41
05/21 01:00      0.28     25.11      ----     12.57     12.41
05/21 02:00      0.23     25.01      ----     12.57     12.41
05/21 03:00      0.09     25.06      ----     12.57     12.41
05/21 04:00      0.13     25.11      ----     12.57     12.41
05/21 05:00      0.11     25.16      ----     12.57     12.41
05/21 06:00      0.98     25.36      ----     12.57     12.41
05/21 07:00      0.13     25.78      ----     12.57     12.41
05/21 08:00      0.09     26.00      ----     12.57     12.41
05/21 09:00      0.12     26.27      ----     12.57     12.41
05/21 10:00      0.09     26.52      ----     12.65     12.41
05/21 11:00      0.00     26.69      ----     12.65     12.49
05/21 12:00      0.00     26.76      ----     12.81     12.49
05/21 13:00      0.00     26.68      ----     12.73     12.73
05/21 14:00      0.01     26.51     21064     13.21     12.57
05/21 15:00      0.00     26.28     20629     13.29     13.05
05/21 16:00      0.00     25.93     19973     13.21     13.05
05/21 17:00      0.00     25.41     19010     13.13     13.05
05/21 18:00      0.00     24.78     17864     13.05     12.97
05/21 19:00      0.00     23.86     16230     12.97     12.97
05/21 20:00      0.00     22.70     14241     12.89     12.89
05/21 21:00      0.00     21.25     11872     12.81     12.73
05/21 22:00      0.00     19.89      9791     12.81     12.73
05/21 23:00      0.00     18.76      8135     12.81     12.65